Torna al catalogo

COSMOS 1249 COOLANT

LostLEO
NORAD 27569·DEBRIS·🇷🇺 Russia

Lanciato Mar 5, 1981 da Baikonur Cosmodrome

Loading…

Prossimi Passaggi (prossime 24 ore)

TLE

ObsoletoSource: Space-Track

Epoca: May 24, 2025, 14:41 UTC

1 27569U 81021R   25144.61205683  .00000097  00000-0  14510-3 0  9998
2 27569  64.9607 227.3514 0045951 358.3013   1.7888 13.92303028600003

Traccia COSMOS 1249 COOLANT in tempo reale con AllMySat

Download on the App Store